Погода в Золотарях

Россия / Волгоградская область     49°45′43″N   46°27′01″E
В апреле 2022 года жителям России запретили посещать сайт meteo.paraplan.net по решению Генеральной прокуратуры. Аудитория сайта уменьшилась в 10 раз. Владельцы сайта не видят смысла в поддержке погодного сервера в таких условиях. Сайт будет закрыт в октябре.
темп.,
°C
ветер,
м/с
пор.,
м/с
влажн.,
%
обл.,
%
осадки,
мм/ч
давл.,
гПа
погр.,
м
25 сентября, вс
вс2500:00+13юз71268100 0.0 1012634
03:00+12юз5980100 0.4 1011615
06:00+11юз4685100 7.0 1010418
09:00+12з81074100 8.8 10101009
12:00+15зюз8105056 0.3 10101894
15:00+13з11136298 0.7 10111449
18:00+11зюз91275100 0.4 10111227
21:00+11з81274100 0.5 10121128
26 сентября, пн
пн2600:00+11з81672100 0.0 10131586
03:00+11юз613736 0.0 1013600
06:00+10зюз714735 0.0 1014492
09:00+13з913555 0.0 10151427
12:00+16з9124375 0.0 10152017
15:00+16зсз8113625 0.0 10162142
18:00+14з4944100 0.0 1017278
21:00+12сз2353100 0.0 101844
27 сентября, вт
вт2700:00+13ююв2351100 0.0 101862
03:00+13ююв2255100 0.0 101828
06:00+13ююв3656100 0.0 1017164
09:00+16ю4659100 0.0 1017382
12:00+19ю5648100 0.0 10161211
15:00+20ю4742100 0.0 10151416
18:00+19юв3546100 0.0 101494
21:00+17юв4105179 0.0 1013186
28 сентября, ср
ср2800:00+17ююв61351100 0.0 1012379
03:00+15ююв51164100 0.0 1012297
06:00+15юв61259100 0.0 1010318
09:00+17ююв5854100 0.0 1010394
12:00+20ююз6753100 0.0 1009830
15:00+21ю1357100 0.1 1008847
18:00+19ю3664100 0.0 1008141
21:00+19ююв336189 0.0 100872
29 сентября, чт
чт2900:00+17ю356411 0.1 100765
03:00+16з338312 0.2 100848
06:00+15зсз348834 0.0 100974
09:00+19сз456937 0.0 1010437
12:00+22зсз555032 0.0 10101154
15:00+23сз66372 0.0 10111506
18:00+19сз47490 0.0 1013187
21:00+16ссз48615 0.0 1015229